Location: Newark
(35.8833°N, 14.5000°E)
Time: 08:08:59
(UTC+00:00)

Envisat - Visible Passes

Search period start: 22 March 2019 00:00
Search period end: 01 April 2019 00:00
Orbit: 764 x 766 km, 98.2° (Epoch: 22 March)

Date Brightness Start Highest point End Pass type
(mag) Time Alt. Az. Time Alt. Az. Time Alt. Az.
22 Mar 5.3 18:37:27 10° SSW 18:41:36 25° W 18:45:46 10° NW visible
23 Mar 3.6 17:59:43 10° S 18:04:43 60° W 18:09:44 10° NNW visible
24 Mar 6.0 19:04:51 10° WSW 19:07:21 14° W 19:09:51 10° WNW visible
25 Mar 4.8 18:25:49 10° SSW 18:30:19 32° W 18:34:52 10° NNW visible
26 Mar 3.2 17:48:26 10° S 17:53:29 78° WSW 17:58:34 10° NNW visible
27 Mar 5.8 18:52:40 10° SW 18:56:02 18° W 18:59:25 10° NW visible
28 Mar 4.4 18:14:18 10° S 18:19:03 42° W 18:23:52 10° NNW visible
30 Mar 5.4 18:40:46 10° SSW 18:44:44 23° W 18:48:43 10° NW visible
31 Mar 3.9 18:02:52 10° S 18:07:49 54° W 18:12:47 10° NNW visible
